KCMH Airport Diagram

We have created a template for each of the higher traffic airports in the vZID airspace. They include KCMH, KCRW, KCVG, KDAY, KIND, KLEX and KSDF. You wil find usefull information including the airport diagram, weather, and specific airport procedures.

KCMH Weather

[Source: ADDS]
METAR
KCMH 180151Z 13006KT 5SM -RA BR SCT005 OVC009 01/00 A2997 RMK AO2 RAB36SNE36 SLP158 P0001 T00110000 =
KCMH 172337Z 1800/1824 15006KT 3SM -SN BR OVC007 FM180200 18004KT 2SM -DZ BR OVC006 FM180500 26004KT 1/4SM -DZ FG OVC002 FM180800 28006KT 1SM BR OVC002 FM181400 30006KT P6SM OVC005 FM181700 31005KT P6SM OVC008 FM182200 07005KT P6SM OVC012
TAF
KCMH 172337Z 1800/1824 15006KT 3SM -SN BR OVC007 FM180200 18004KT 2SM -DZ BR OVC006 FM180500 26004KT 1/4SM -DZ FG OVC002 FM180800 28006KT 1SM BR OVC002 FM181400 30006KT P6SM OVC005 FM181700 31005KT P6SM OVC008 FM182200 07005KT P6SM OVC012 =

KCMH Operations

Calm wind runway(s) up to 10 kts: Arriving/Departing 28L/R

Typically, Rw 10R/28L for departures to the West and South and Rw 10L/28R for departures to the North and East.

FBOs: Lane Aviation midfield near Tower, Signature South of Twy B.

Advise ATC if you have updated scenery for KCMH as there are significant changes to the runway/taxiways on the South side of the airport. Default scenery does not match the Airport Diagram available through the usual sources.

JSN Epic template designed by JoomlaShine.com